Weather in Mayevo

Russia / Pskov Oblast     56°21′36″N   29°47′56″E
temp.,
°C
wind,
m/s
gust,
m/s
humid.,
%
clouds,
%
prec.,
mm/h
press.,
hPa
HPBL,
m
20 april, tue
tue2000:00+8e387597 0.0 1022382
03:00+6ne267999 0.0 1021208
06:00+6ene3782100 0.1 1019369
09:00+4e4693100 0.9 1019625
12:00+5e3694100 0.9 1018593
15:00+6e4577100 1.0 1017827
18:00+6e3685100 0.1 1016739
21:00+4ene3695100 0.3 1015793
21 april, wed
wed2100:00+5nne2496100 0.2 1013241
03:00+4n2493100 0.2 1011224
06:00+4n2593100 0.0 1009304
09:00+5nnw3584100 0.0 1008548
12:00+8nw4665100 0.1 10061374
15:00+8wnw4664100 0.4 10061218
18:00+9w355576 0.1 10061404
21:00+5sw257710 0.1 100781
22 april, thu
thu2200:00+4ssw268689 0.0 1008117
03:00+5s3108484 0.0 1008243
06:00+3s3994100 0.0 1008192
09:00+9ssw377272 0.0 1009440
12:00+13ssw474836 0.3 10091882
15:00+14ssw464092 0.3 10082152
18:00+12ssw486196 0.6 1009628
21:00+8w3787100 1.5 1010334
23 april, fri
fri2300:00+6nw0093100 0.0 101010
03:00+6wnw2486100 0.2 1009533
06:00+3ese1095100 6.0 1011151
09:00+5ssw3585100 6.1 1012604
12:00+8ssw4663100 0.1 10111485
15:00+7ssw3564100 0.4 10111619
18:00+7s3569100 0.1 1010953
21:00+4sw259585 0.7 1010416
24 april, sat
sat2400:00+2ssw269545 0.0 1010151
03:00+1sw2694100 0.0 1009180
06:00+1nw3697100 0.4 1009424
09:00+1wnw5782100 0.6 1011842
12:00+4wnw475482 0.1 10121823
15:00+7w4734100 0.1 10112879
18:00+6w475470 0.6 10111539
21:00+2ssw257628 0.7 101196